Back to catalog

DELTA 1 DEB

AlivePO
NORAD 21325·DEBRIS·🇺🇸 United States

Launched Jun 12, 1975 from Vandenberg Space Force Base

Loading…

Next Passes (next 24 hours)

TLE

FreshSource: Space-Track

Epoch: Sep 14, 2026, 08:05 UTC

1 21325U 75052AT  26257.33685044  .00002622  00000-0  14856-2 0  9995
2 21325  99.7478 270.7600 0092953 244.3228 126.4600 14.08910283776076

Track DELTA 1 DEB in real time with AllMySat

Download on the App Store